YAOGAN 18 (39363 NORAD) Tracking and Keplerian Element Data

This shows tracking and keplerian element data for the satellite.

Feedback or suggestion? Click here.




ElementValue
Catalog39363
NameYAOGAN 18
Epoch Orbit30387
Epoch Day114.18000767
Epoch Year2019
RAAN173.3862
Inclination97.303
Eccentricity0.0002034
Argument of Perigee57.2111
Mean Anonmoly27.3052
Mean Motion15.18072727
Decay Rate3.9E-06
L11 39363U 13059A 19114.18000767 .00000390 00000-0 22315-4 0 9996
L22 39363 97.3030 173.3862 0002034 57.2111 27.3052 15.18072727303874

Live tracking and technical data element details for YAOGAN 18 (NORAD 39363). YAOGAN 18 can be tracked NOW for your location showing map with azimuth and elevation plus other details from your city location.

Track the satellite on the map from your city or location and see movement details for azimuth, elevation, latitude, longitude, range, height, and movement on the map or in text.







IsCatalogInMostPopularTable: catalog: 39363, numindb: 174
Update: records affected: 1



GetName: 39363 YAOGAN 18

Hit Count: updated at: Thu, 25 Apr 2019 19:47:39 GMT